User: anonymous   Login
Location: ???????
(55.4362°N, 38.1183°E)
Time: 07:11:47
(UTC+00:00)
Language:

Terra - Orbit

View from above orbital plane
View from above orbital plane
View from above satellite
View from above satellite

Ground track
Ground track

The orbit data is extracted from the following two-line orbital elements,

1 25994U 99068A   21265.67650045  .00000092  00000-0  30279-4 0  9996
2 25994  98.1690 338.2857 0001394  92.7718  10.5632 14.57130206157505
Epoch (UTC): 22 September 2021 16:14:09
Eccentricity: 0.0001394
inclination: 98.1690°
perigee height: 701 km
apogee height: 703 km
right ascension of ascending node: 338.2857°
argument of perigee: 92.7718°
revolutions per day: 14.57130206
mean anomaly at epoch: 10.5632°
orbit number at epoch: 15750

The dashed part of the orbit path shows where the satellite is in the earth's shadow,  

DLR